Wetbulb
75.50 75.96 75.89 75.58 75.88 76.45 75.90 76.25 77.05 77.91 78.69 78.07 77.98 77.65 77.02 77.05 77.43 77.80 78.16 77.90 77.04 77.21 77.23 77.70 76.95 79.16 75.77 74.79 75.28 74.54 73.51 73.09 71.08 72.44 74.19 76.16 78.77 79.87 78.18 79.41 77.37 78.88 75.54
75.54 76.32 75.82 76.06 75.96 75.50 75.35 76.74 77.18 77.32 79.94 78.17 77.93 77.69 77.36 77.21 78.10 77.26 76.20 75.77 75.94 75.84 75.94 77.04 76.10 75.25 78.67 79.54 75.14 78.47 75.92 76.31 72.29 74.13 74.43 73.87 77.57 80.32 80.75 80.60 76.66 75.77 76.83
76.61 76.04 76.13 75.78 75.65 75.49 75.77 76.46 77.42 77.33 77.54 78.61 78.94 77.95 77.89 77.38 77.73 77.62 77.38 76.66 76.43 76.06 75.96 75.97 75.47 76.44 77.16 76.05 77.02 76.26 74.76 74.69 75.84 72.93 72.44 74.13 75.18 75.88 78.09 79.85 79.86 78.84 76.66
74.20 76.17 76.27 76.33 76.34 75.80 75.96 76.79 76.58 77.53 77.43 78.30 78.04 78.08 77.45 77.36 77.30 76.89 77.33 77.16 76.80 76.25 76.52 76.47 76.14 75.84 77.01 76.62 77.08 77.85 77.32 75.87 75.63 73.49 72.51 72.87 73.25 76.81 77.45 74.12 72.97 74.42 74.51
71.19 73.78 75.25 76.17 77.12 76.73 76.62 77.13 76.92 77.08 76.89 78.23 77.18 77.18 77.24 76.76 75.29 77.15 77.81 77.08 77.31 76.47 76.47 76.27 76.45 75.56 72.60 73.04 75.17 78.69 78.44 76.18 73.32 72.13 71.15 71.06 71.20 73.61 73.26 74.31 73.63 73.93 75.65
69.10 70.64 73.86 74.75 75.29 75.64 76.25 76.36 76.73 77.04 76.93 77.90 77.32 76.67 76.67 74.22 61.80 64.46 71.13 76.47 76.82 76.74 76.20 76.73 77.15 74.71 73.66 70.14 69.24 69.09 72.22 75.60 76.12 73.88 72.83 72.50 76.16 75.21 74.57 73.71 73.57 71.95 70.80
70.17 70.80 72.33 72.58 73.42 74.49 74.54 74.97 74.66 75.16 76.22 76.08 75.81 76.34 73.88 69.31 59.07 61.61 66.24 75.87 77.05 76.99 77.53 77.85 76.54 74.97 74.56 76.88 70.68 68.05 68.43 66.95 68.70 76.53 75.72 75.81 76.08 77.68 78.02 77.57 76.24 75.73 74.11
70.60 70.59 71.03 71.50 71.16 71.73 72.86 73.14 73.66 75.19 74.58 75.08 75.10 75.27 70.72 64.26 56.75 57.89 63.09 75.29 77.05 76.76 76.45 76.85 77.74 77.07 68.97 70.14 76.13 76.79 76.80 77.06 75.13 75.72 76.93 77.88 78.13 78.45 78.40 78.13 77.72 77.38 77.10
67.98 69.54 70.35 70.79 70.69 69.48 65.85 66.13 67.89 71.28 70.47 69.86 69.22 69.79 68.03 62.28 54.42 56.65 62.89 76.69 75.71 72.43 72.43 70.28 74.18 72.51 61.58 61.20 71.68 74.38 75.40 76.34 72.64 66.27 66.64 66.25 66.26 66.93 68.64 74.21 73.66 72.89 72.35
65.07 67.51 68.95 68.51 67.69 66.21 64.81 67.04 69.67 69.88 68.58 67.84 66.73 65.52 60.44 61.16 52.38 53.25 60.45 73.96 73.57 73.32 73.99 72.25 60.97 62.06 56.34 56.44 67.35 69.86 71.60 71.70 70.11 70.51 72.51 72.78 71.98 74.40 67.17 73.76 75.27 73.34 73.25
62.62 64.66 67.65 68.66 68.32 68.68 69.03 68.75 68.47 67.85 67.72 65.52 64.90 64.27 62.73 60.31 55.59 52.00 52.45 64.55 64.23 67.94 69.12 69.42 66.27 56.24 54.54 53.67 54.33 68.40 66.00 64.22 66.34 68.15 68.93 69.10 71.43 73.14 76.58 78.15 77.49 76.89 72.89
61.10 62.57 63.98 64.75 64.98 65.76 67.59 68.08 69.17 68.23 66.88 66.39 65.78 64.29 62.95 60.09 53.21 51.74 51.67 52.62 56.00 65.33 64.61 64.99 64.06 53.29 52.10 52.49 56.59 57.26 56.45 58.20 68.67 69.46 69.65 69.62 69.83 70.56 71.18 72.64 75.59 76.15 76.40
59.46 59.69 62.79 63.45 65.01 65.10 64.92 65.66 65.12 66.42 65.79 65.67 64.84 63.82 63.00 62.09 60.44 52.52 51.65 52.62 54.44 59.19 62.19 57.82 54.15 52.66 52.52 56.97 56.35 56.71 56.08 67.21 67.66 67.16 66.75 67.42 67.85 68.82 73.27 71.52 72.63 73.61 76.20
60.44 60.34 60.08 61.68 62.15 63.00 63.45 63.68 64.04 63.05 63.04 63.40 63.19 63.29 61.65 59.49 56.01 52.56 51.23 54.16 54.60 58.02 57.55 58.05 58.26 57.26 54.86 57.76 58.74 63.48 65.72 65.76 65.95 66.57 66.57 66.22 66.62 66.27 65.73 66.88 65.64 65.86 65.76
58.88 59.22 59.00 58.34 59.80 58.90 53.37 49.60 56.55 48.56 46.29 57.85 58.13 60.26 57.43 58.60 49.60 42.73 42.75 48.34 50.86 48.72 47.42 59.34 59.79 60.49 60.44 61.38 62.15 63.08 64.22 64.38 63.92 63.66 62.50 62.01 62.66 63.06 63.04 64.76 64.39 64.54 64.21
57.36 56.89 56.82 57.37 58.10 56.89 55.42 51.21 43.05 42.60 41.12 39.99 40.04 46.91 48.14 42.14 40.98 40.23 39.32 39.68 40.60 42.35 54.33 56.45 56.82 57.16 56.80 56.67 57.28 58.57 59.69 60.01 60.20 60.21 60.37 60.14 59.58 59.94 60.47 60.82 61.35 61.33 61.60
56.52 56.19 55.10 53.11 55.56 55.73 55.54 53.44 49.31 43.45 41.91 40.21 39.69 39.86 40.00 39.03 39.72 39.22 38.84 39.68 41.61 44.17 54.80 54.53 54.16 53.98 53.87 54.14 53.96 53.97 54.93 55.79 57.92 56.14 56.64 56.81 56.78 57.99 58.18 58.21 58.97 59.63 59.03
56.35 48.65 54.36 54.88 54.56 54.59 54.83 55.11 54.80 52.89 51.93 49.73 40.96 42.74 40.13 39.69 39.40 39.18 39.49 42.37 52.98 51.75 53.37 53.09 52.76 53.10 53.48 53.38 53.45 53.27 53.33 53.25 53.81 53.48 53.16 54.89 55.09 54.33 54.35 54.94 55.58 56.50 56.16
54.03 52.46 53.34 54.36 54.35 52.64 53.87 53.50 53.64 53.78 53.90 52.40 49.87 43.00 43.39 40.97 41.53 40.93 41.46 52.81 52.00 51.60 51.55 51.57 51.56 51.53 51.59 51.74 51.82 52.03 52.28 52.01 51.32 52.15 52.71 53.28 53.05 51.68 50.89 51.17 51.35 48.84 49.45
52.50 48.82 50.64 53.04 51.38 51.99 52.56 52.10 52.35 52.59 52.17 52.19 51.32 49.87 52.11 48.50 51.09 51.61 51.68 51.45 50.92 50.47 50.35 50.20 50.16 49.96 49.84 49.90 49.62 49.51 49.37 49.74 50.15 49.92 50.10 50.45 50.24 48.90 47.89 49.83 50.27 49.12 48.98
51.45 49.58 51.09 50.33 51.41 52.03 52.01 51.62 52.21 51.71 51.50 51.51 49.78 44.78 37.92 49.25 50.90 50.68 50.57 50.18 49.64 49.45 49.01 48.87 48.53 48.53 48.44 48.08 47.78 47.41 47.15 47.23 47.39 46.96 46.91 46.31 46.35 45.58 46.43 46.63 46.94 47.76 48.18
51.08 50.64 49.26 50.72 50.67 50.64 50.56 51.22 50.70 50.60 51.08 50.32 49.90 46.24 42.03 48.99 50.96 50.78 49.95 49.73 49.45 49.40 49.28 48.40 47.74 47.21 47.04 46.52 46.13 45.72 45.26 45.05 45.36 45.49 44.87 43.86 42.54 42.72 43.30 44.09 45.07 46.10 46.83
51.32 51.02 50.54 50.19 50.23 48.75 49.76 50.21 50.00 50.03 50.22 50.66 51.15 50.15 49.72 50.84 50.44 49.79 49.54 49.18 49.16 49.38 49.11 48.44 47.58 46.81 46.74 45.97 45.85 45.27 44.02 43.76 43.25 42.95 41.50 40.90 40.52 40.30 40.66 40.63 42.52 43.90 45.04
51.22 50.45 50.03 50.06 50.32 49.94 49.36 49.74 50.30 45.75 49.74 49.81 49.94 50.32 50.97 50.69 50.60 49.74 50.45 49.85 49.31 48.31 48.20 47.72 46.90 45.53 45.30 44.85 44.99 44.57 43.67 42.75 41.62 40.55 40.22 38.90 37.22 37.09 37.51 37.47 38.16 39.41 41.84
51.87 50.90 50.09 49.61 49.56 48.86 49.94 50.15 49.99 49.38 49.02 49.53 49.68 49.87 50.52 51.04 51.35 50.69 50.91 50.24 49.43 48.54 47.12 46.59 46.16 45.28 44.22 43.60 42.45 42.01 38.13 33.59 37.49 35.78 37.77 38.18 36.84 36.56 36.25 35.97 36.18 36.75 37.23
51.42 49.32 50.52 50.56 50.31 50.33 49.80 49.43 49.78 49.92 49.57 49.43 49.68 50.15 50.33 50.08 50.12 50.52 50.98 49.97 48.73 47.97 47.11 46.83 45.89 43.89 42.78 42.04 42.12 36.93 33.22 32.68 35.82 32.83 36.02 36.28 35.91 36.39 36.47 36.23 36.46 36.22 36.51
MSLP
1016.61 1017.07 1017.61 1017.85 1018.31 1018.85 1018.97 1019.23 1019.08 1019.24 1019.28 1019.37 1019.53 1019.74 1020.02 1020.17 1020.32 1020.59 1020.61 1020.44 1020.75 1020.86 1020.91 1020.82 1020.91 1021.09 1020.82 1020.24 1019.81 1019.52 1019.35 1019.20 1018.99 1018.52 1018.58 1018.37 1018.53 1018.46 1018.46 1018.39 1017.96 1017.25 1016.41
1016.37 1016.99 1017.54 1017.71 1017.97 1018.21 1018.64 1018.58 1019.02 1019.23 1019.39 1019.31 1019.49 1019.71 1019.83 1019.99 1020.21 1020.47 1020.62 1020.22 1020.55 1020.63 1020.65 1020.66 1020.70 1020.64 1020.81 1020.85 1020.58 1020.28 1019.91 1020.05 1019.88 1019.47 1019.27 1018.79 1018.28 1017.91 1017.72 1017.92 1017.42 1016.84 1016.38
1016.06 1016.46 1017.05 1017.65 1017.83 1017.99 1018.13 1018.46 1018.63 1019.12 1019.30 1019.38 1019.63 1019.57 1019.94 1020.01 1020.02 1020.33 1020.49 1020.41 1020.20 1020.29 1020.36 1020.35 1020.35 1020.37 1020.63 1020.57 1020.69 1020.44 1020.08 1019.76 1019.64 1019.26 1019.05 1018.49 1017.90 1017.56 1017.23 1017.02 1016.89 1016.39 1015.89
1016.78 1016.83 1017.06 1017.35 1017.57 1017.61 1017.88 1018.21 1018.62 1018.81 1018.99 1019.42 1019.36 1019.70 1019.77 1019.97 1020.10 1020.19 1020.16 1020.35 1020.17 1020.07 1020.02 1020.05 1020.10 1020.11 1020.25 1020.64 1020.70 1020.55 1020.42 1020.29 1019.78 1019.40 1018.71 1018.04 1017.65 1017.33 1017.14 1017.09 1016.73 1016.31 1015.79
1018.11 1017.80 1017.78 1017.97 1018.00 1018.06 1018.24 1018.22 1018.49 1018.76 1018.78 1018.92 1019.04 1019.34 1019.57 1019.75 1020.31 1020.29 1020.11 1019.96 1020.02 1020.11 1019.87 1019.93 1019.95 1019.72 1020.10 1020.65 1020.73 1020.39 1020.67 1020.28 1019.69 1019.20 1018.65 1018.11 1017.59 1017.77 1017.49 1017.18 1016.67 1016.39 1016.29
1018.64 1018.46 1018.25 1018.35 1018.35 1018.33 1018.53 1018.76 1018.85 1018.84 1018.75 1018.87 1019.03 1019.14 1019.41 1020.32 1021.41 1020.73 1020.38 1019.64 1019.66 1019.88 1019.84 1019.88 1019.95 1020.06 1020.45 1020.23 1020.44 1020.50 1020.98 1020.87 1020.57 1020.15 1019.44 1018.76 1018.52 1018.27 1018.05 1017.69 1017.49 1016.95 1016.49
1018.78 1018.97 1018.75 1018.79 1018.76 1018.71 1018.91 1019.08 1019.31 1019.20 1019.38 1019.42 1019.52 1019.75 1020.63 1021.57 1021.90 1021.47 1020.87 1020.35 1019.96 1019.76 1019.83 1019.91 1019.75 1019.11 1019.87 1020.07 1020.11 1020.12 1020.51 1020.51 1020.66 1020.27 1019.67 1019.21 1018.85 1018.61 1018.45 1018.13 1017.72 1017.38 1016.88
1018.67 1019.01 1019.06 1019.04 1018.97 1019.25 1019.27 1019.45 1019.58 1019.61 1019.63 1019.83 1019.94 1020.38 1021.14 1022.41 1022.24 1021.83 1021.28 1020.82 1020.45 1020.19 1020.27 1020.25 1020.32 1020.43 1021.53 1021.45 1020.84 1020.35 1020.00 1019.67 1019.51 1019.57 1019.33 1019.19 1018.91 1018.63 1018.54 1018.19 1017.88 1017.47 1016.60
1019.13 1018.95 1018.97 1018.87 1019.22 1019.80 1019.97 1020.55 1020.38 1019.95 1020.29 1020.63 1020.94 1021.13 1021.69 1022.56 1022.65 1021.91 1021.61 1020.68 1020.52 1020.98 1021.16 1021.25 1021.13 1021.69 1022.35 1022.05 1021.58 1020.62 1019.92 1019.42 1018.35 1018.86 1019.15 1019.03 1018.77 1018.55 1018.67 1018.54 1017.62 1016.89 1015.90
1019.60 1019.43 1019.33 1019.57 1019.89 1020.28 1020.28 1020.61 1020.39 1020.49 1020.77 1021.37 1021.31 1021.83 1022.14 1022.77 1023.22 1022.40 1021.79 1020.73 1020.67 1020.55 1020.88 1021.40 1022.28 1022.61 1022.81 1022.75 1022.36 1021.45 1020.68 1020.03 1019.81 1019.27 1018.86 1018.18 1017.91 1017.74 1018.10 1018.18 1017.74 1017.55 1017.15
1020.19 1020.02 1019.65 1019.61 1019.63 1019.97 1020.20 1020.61 1020.73 1021.09 1021.24 1021.60 1022.09 1022.37 1022.74 1022.95 1023.56 1023.20 1022.82 1022.47 1022.16 1020.81 1020.33 1020.73 1022.06 1022.61 1022.71 1022.91 1022.79 1022.22 1021.96 1021.87 1020.43 1019.49 1018.61 1018.02 1017.67 1017.51 1017.39 1017.43 1017.45 1017.46 1017.11
1020.92 1020.82 1020.55 1020.48 1020.28 1020.56 1020.74 1020.73 1020.72 1021.05 1021.32 1021.80 1021.95 1021.72 1022.50 1023.08 1023.57 1023.69 1023.70 1023.90 1023.22 1022.04 1021.78 1021.81 1022.24 1022.80 1022.69 1022.66 1022.63 1022.06 1021.77 1021.81 1020.21 1018.91 1018.25 1017.66 1017.29 1017.31 1017.18 1017.15 1017.10 1016.87 1016.87
1021.50 1021.42 1021.22 1021.11 1020.78 1020.99 1021.24 1021.14 1021.19 1021.31 1021.35 1021.61 1021.55 1021.40 1021.94 1022.45 1022.97 1024.09 1024.56 1023.91 1023.22 1023.15 1022.93 1022.59 1022.65 1022.60 1022.45 1021.67 1021.79 1021.72 1021.72 1020.83 1019.56 1018.93 1018.47 1018.02 1017.90 1017.59 1017.30 1016.95 1016.60 1016.54 1015.97
1021.38 1021.57 1021.68 1021.55 1021.24 1021.38 1021.27 1021.42 1021.25 1021.96 1022.22 1022.20 1022.37 1022.48 1022.97 1023.72 1024.52 1024.96 1024.75 1023.62 1023.39 1022.94 1023.01 1022.38 1021.99 1022.51 1022.19 1022.29 1021.53 1021.06 1020.87 1020.38 1019.87 1019.54 1019.02 1018.93 1018.65 1018.03 1017.79 1017.50 1017.06 1016.75 1016.43
1021.33 1021.20 1021.33 1021.36 1021.41 1021.91 1023.22 1024.20 1023.92 1025.44 1025.63 1023.87 1023.83 1023.51 1024.13 1024.13 1025.86 1026.73 1026.42 1025.56 1025.09 1024.83 1024.93 1022.90 1021.96 1021.57 1022.07 1021.78 1021.37 1021.01 1020.78 1020.88 1020.63 1020.40 1020.37 1019.97 1019.25 1018.83 1018.51 1018.22 1018.02 1017.56 1016.80
1021.42 1021.17 1021.11 1020.92 1021.21 1021.71 1022.94 1024.64 1026.29 1026.65 1026.63 1026.41 1026.30 1025.81 1026.03 1026.67 1026.79 1026.67 1026.42 1026.18 1025.98 1025.55 1024.59 1023.36 1022.75 1022.65 1022.73 1023.21 1022.86 1022.21 1021.92 1021.76 1021.77 1021.68 1021.01 1020.64 1020.21 1019.69 1019.15 1018.90 1018.59 1018.11 1017.53
1021.58 1021.68 1021.40 1021.71 1021.23 1021.33 1022.03 1023.41 1025.06 1027.04 1027.18 1027.05 1026.78 1026.75 1026.63 1026.89 1026.54 1026.42 1026.30 1025.83 1025.07 1025.28 1024.07 1023.25 1023.10 1023.12 1023.12 1023.58 1023.70 1023.29 1022.79 1022.95 1022.99 1022.55 1022.38 1022.03 1021.74 1020.88 1020.02 1019.40 1018.98 1018.51 1018.07
1022.01 1022.69 1021.73 1021.46 1021.57 1021.59 1021.81 1022.18 1022.65 1023.98 1024.76 1025.89 1027.23 1026.68 1026.83 1026.59 1026.29 1025.80 1025.62 1025.30 1024.45 1024.45 1023.75 1023.55 1023.65 1023.48 1023.55 1023.80 1024.11 1023.92 1023.67 1023.40 1023.02 1023.00 1023.00 1022.47 1022.15 1021.96 1021.36 1020.95 1020.36 1019.89 1019.33
1022.05 1022.15 1022.13 1021.83 1021.82 1021.87 1021.87 1022.05 1022.19 1022.92 1023.28 1024.01 1025.68 1026.67 1026.27 1026.33 1026.19 1025.83 1025.62 1024.72 1024.41 1024.27 1024.33 1024.23 1024.31 1024.41 1024.50 1024.73 1024.78 1024.83 1024.67 1024.13 1023.97 1023.47 1022.96 1022.70 1022.59 1022.87 1022.63 1022.19 1021.62 1021.50 1020.92
1022.23 1022.78 1022.50 1022.09 1022.36 1022.02 1021.83 1021.87 1022.06 1022.59 1023.03 1023.27 1023.90 1024.70 1024.84 1025.45 1025.13 1025.09 1025.36 1025.34 1024.93 1024.79 1025.06 1025.05 1025.33 1025.55 1025.65 1025.85 1025.77 1025.85 1025.43 1024.87 1024.48 1024.34 1024.14 1023.95 1023.75 1023.98 1023.86 1023.01 1022.21 1021.66 1021.13
1022.18 1022.65 1022.77 1022.55 1021.86 1021.71 1021.94 1022.06 1022.17 1022.35 1022.59 1022.99 1024.17 1025.71 1025.81 1024.88 1024.51 1025.07 1025.34 1025.39 1025.49 1025.56 1025.82 1025.94 1026.05 1026.28 1026.48 1026.53 1026.66 1026.62 1025.97 1025.63 1025.45 1025.44 1025.27 1025.20 1025.00 1024.68 1024.35 1023.83 1023.05 1022.09 1021.08
1021.86 1021.99 1022.19 1021.96 1021.95 1022.42 1022.47 1022.52 1022.52 1022.45 1022.59 1023.05 1023.95 1025.41 1025.73 1025.34 1024.97 1025.30 1025.49 1025.57 1025.80 1026.02 1026.10 1026.46 1026.63 1026.88 1027.04 1027.07 1027.13 1026.97 1026.72 1026.35 1026.12 1026.01 1026.00 1026.09 1025.99 1025.66 1024.99 1024.02 1023.01 1021.91 1020.95
1021.11 1021.15 1021.50 1021.73 1022.13 1022.68 1022.98 1022.75 1022.64 1022.70 1022.85 1023.23 1023.57 1023.94 1024.57 1024.71 1025.04 1025.40 1025.78 1026.02 1026.22 1026.38 1026.63 1026.77 1026.91 1027.07 1027.25 1027.41 1027.47 1027.42 1027.26 1026.99 1027.10 1027.13 1026.99 1026.85 1026.55 1026.15 1025.67 1024.97 1023.93 1022.66 1021.53
1020.63 1020.71 1020.88 1021.33 1021.87 1022.34 1022.36 1022.41 1022.63 1023.39 1022.96 1023.33 1023.73 1023.91 1024.25 1024.63 1024.86 1025.27 1025.59 1026.14 1026.60 1026.63 1026.75 1026.91 1027.11 1027.49 1027.63 1027.76 1027.67 1027.70 1027.75 1027.72 1028.05 1027.84 1027.47 1027.25 1027.14 1026.55 1025.87 1025.18 1024.37 1023.47 1022.40
1019.90 1020.22 1020.57 1020.81 1021.25 1021.92 1021.72 1022.04 1022.26 1022.84 1023.07 1023.15 1023.49 1023.91 1024.15 1024.44 1024.71 1025.05 1025.38 1025.97 1026.43 1026.67 1026.94 1027.18 1027.33 1027.43 1027.65 1027.90 1028.17 1028.14 1028.12 1028.41 1028.22 1028.12 1027.71 1027.13 1026.79 1026.13 1025.42 1024.71 1023.85 1023.07 1022.34
1019.92 1020.23 1020.18 1020.20 1020.49 1021.07 1021.30 1021.71 1021.82 1022.35 1022.75 1022.93 1023.42 1023.81 1024.01 1024.31 1024.61 1024.93 1025.26 1025.74 1026.13 1026.20 1026.46 1026.79 1027.07 1027.52 1027.82 1027.92 1027.79 1027.87 1027.99 1027.85 1027.64 1027.37 1027.12 1026.59 1026.01 1025.15 1024.49 1023.80 1022.90 1022.13 1021.36
Wind_Speed
11 10 9 9 8 8 7 6 6 5 7 7 9 9 10 8 8 6 8 2 7 6 7 6 4 6 7 9 8 6 6 6 8 8 10 10 9 7 6 7 10 11 5
12 12 10 8 8 9 8 9 7 6 6 8 9 9 9 8 8 9 8 8 8 8 8 7 7 7 5 6 7 7 6 7 8 8 9 9 9 6 5 6 8 9 8
8 12 11 10 10 9 9 7 7 8 8 9 8 8 7 9 9 8 9 9 8 8 8 9 8 8 6 7 6 7 8 7 6 8 9 9 8 7 7 6 6 8 10
3 5 10 11 9 9 9 8 9 7 9 9 9 7 10 10 10 10 10 9 9 9 9 7 8 8 8 6 8 5 7 6 7 8 9 8 7 7 6 7 8 8 7
4 2 6 7 7 7 6 8 10 10 9 6 8 8 9 8 4 10 10 11 9 8 8 7 10 9 5 6 7 5 6 6 8 9 10 9 8 10 9 9 9 9 10
2 4 5 4 3 4 5 7 8 8 9 9 8 9 9 4 13 13 10 9 9 9 9 9 9 5 8 10 11 11 8 8 8 9 10 10 9 9 10 10 10 10 10
7 4 4 2 4 5 4 6 7 7 4 5 5 6 6 9 15 12 11 6 8 7 8 7 9 7 6 9 12 11 9 11 14 10 11 10 12 10 10 9 10 9 11
7 5 4 5 2 2 4 4 4 4 3 3 3 6 8 8 12 13 9 6 8 8 9 10 8 10 10 10 9 10 10 10 8 8 10 10 11 9 9 10 11 11 12
5 5 5 5 5 5 5 5 5 2 6 7 8 7 8 10 15 13 12 2 4 7 5 7 7 7 10 12 9 9 10 8 10 3 8 9 10 11 7 7 11 11 12
4 3 5 7 6 6 4 1 1 5 6 5 7 8 10 10 16 18 14 6 3 3 4 7 9 8 7 8 7 8 8 7 10 11 10 10 7 7 11 8 8 7 7
6 5 3 4 6 5 7 6 6 4 4 5 5 7 9 9 12 16 19 9 8 6 4 3 8 8 7 6 5 7 6 9 9 9 8 8 7 8 4 3 5 5 8
6 3 4 3 3 5 4 4 5 6 7 4 5 7 7 8 11 12 12 8 10 6 6 7 6 11 9 8 7 5 8 7 8 6 7 6 7 6 7 8 8 8 7
5 4 4 3 5 5 4 5 5 3 4 5 4 4 6 5 6 11 7 10 10 7 5 7 11 11 14 12 9 10 9 8 7 8 9 8 9 9 7 9 8 10 9
5 6 5 3 3 4 5 3 2 2 2 3 3 2 4 2 4 4 6 7 8 6 7 8 9 10 12 12 9 9 5 7 7 8 8 9 10 9 10 9 10 9 9
5 5 6 6 4 7 10 9 7 9 8 7 6 4 5 3 6 5 6 6 6 6 10 7 5 5 7 7 8 8 7 9 8 9 8 10 10 9 9 9 10 11 11
3 4 2 4 7 7 6 7 16 11 10 12 11 11 7 8 2 5 7 10 11 8 4 2 4 6 6 7 8 8 8 10 11 10 8 9 10 10 10 9 9 10 11
5 3 3 4 4 4 7 7 7 4 5 7 9 10 11 6 5 6 6 9 14 7 4 4 4 4 4 4 5 5 7 7 7 8 9 10 12 13 12 11 11 9 10
2 4 5 3 3 3 3 3 4 7 7 7 5 1 6 2 8 9 9 9 5 2 5 5 5 6 6 7 7 8 8 8 8 8 8 8 8 10 12 11 12 14 14
3 5 5 3 1 2 3 4 3 3 2 7 7 4 6 7 8 10 13 5 5 5 6 6 7 7 7 7 8 9 10 9 9 10 10 10 9 9 10 11 12 14 14
5 6 4 3 3 5 3 4 3 3 4 3 4 4 2 9 4 4 5 4 5 6 6 6 7 7 7 8 8 8 9 9 10 10 10 11 11 11 12 14 13 13 13
6 6 5 5 4 3 3 4 3 4 4 3 7 4 7 6 4 4 4 4 5 5 5 5 5 5 6 6 7 8 9 9 9 10 9 10 11 12 13 13 14 14 15
6 6 7 7 5 3 4 3 4 4 3 5 7 5 5 6 3 3 4 4 4 4 4 4 5 5 5 6 7 8 9 10 10 10 11 11 11 12 13 14 15 15 16
8 8 7 7 5 4 4 5 5 4 4 3 3 6 6 2 3 3 2 4 4 3 3 3 4 4 5 6 7 7 8 9 10 10 11 12 12 12 13 15 16 17 16
9 10 9 8 7 7 8 6 5 1 2 5 4 3 3 3 3 5 2 2 2 3 4 4 5 6 6 6 7 7 8 9 9 11 15 12 10 12 12 12 13 17 16
11 11 10 10 10 9 7 7 7 8 7 5 5 4 4 3 2 2 1 1 1 2 2 4 4 5 7 9 10 11 7 10 12 12 11 13 14 17 14 11 13 13 17
9 7 8 10 10 10 9 8 7 7 6 6 5 5 4 4 4 3 2 1 2 3 4 4 4 5 8 8 9 7 7 11 12 10 11 10 11 11 10 13 17 12 15
Wind_Direction
195 171 209 182 185 193 202 219 218 222 222 196 201 198 205 208 215 215 268 316 206 227 273 299 268 288 293 301 324 298 293 295 307 314 336 325 339 292 339 306 306 293 347
185 177 190 196 203 191 219 191 199 203 218 197 204 196 218 214 208 218 226 237 210 230 236 242 255 264 245 242 271 280 300 313 291 304 292 284 282 297 255 270 287 312 323
192 181 183 194 198 225 202 225 199 189 201 221 210 215 215 218 220 212 232 240 245 223 238 244 246 237 237 264 306 317 307 319 315 303 323 299 295 296 280 267 265 285 287
326 301 179 205 211 218 213 201 227 218 200 203 205 212 208 222 217 227 217 243 232 236 237 245 254 257 256 241 254 261 255 267 286 268 275 297 309 288 329 345 321 309 337
297 244 235 219 217 218 243 254 211 222 231 241 225 224 236 214 236 216 225 214 221 244 250 232 237 244 307 314 294 299 333 277 286 307 310 305 307 351 333 307 318 347 312
206 289 231 213 214 212 211 236 248 242 224 222 230 232 228 78 7 8 342 228 220 228 239 238 250 228 230 236 236 253 268 278 275 288 297 297 311 312 313 313 318 306 305
211 188 210 235 221 226 242 230 232 225 249 263 261 268 46 35 360 353 354 276 287 273 273 291 284 259 252 260 224 245 257 235 233 252 263 272 285 290 296 293 289 313 300
193 182 191 173 171 350 252 256 243 218 209 223 214 127 99 43 9 0 331 263 269 290 302 290 278 306 30 343 321 295 279 274 234 240 254 274 277 303 304 292 292 282 270
151 179 183 192 141 108 71 18 324 281 77 90 80 85 85 47 7 13 349 139 71 74 50 40 29 46 8 355 328 291 292 298 313 266 324 294 292 295 283 297 282 286 291
120 172 150 136 149 134 109 183 28 44 109 112 113 99 79 62 21 21 6 358 99 108 122 108 68 43 9 355 337 332 316 8 338 331 318 304 285 302 261 246 279 296 313
41 21 101 113 107 119 150 157 126 118 98 116 82 82 76 73 50 35 21 34 3 336 18 54 77 41 9 337 319 322 345 316 305 291 307 319 321 318 327 251 263 278 299
31 66 105 117 127 114 123 116 115 133 133 129 158 140 114 84 37 51 29 10 2 347 24 39 15 351 324 300 289 313 299 285 272 288 288 292 328 335 340 331 304 284 272
121 29 42 76 97 114 121 123 133 159 159 180 191 147 128 87 65 52 19 351 19 357 0 336 307 303 296 290 241 259 272 273 307 323 319 335 333 328 321 307 329 334 286
147 157 164 163 129 156 173 165 189 185 228 182 180 236 115 111 60 20 353 357 1 331 11 317 300 295 295 292 296 267 264 319 326 309 343 343 322 327 328 323 323 326 316
160 155 162 150 200 88 57 17 73 48 18 319 32 9 336 120 59 345 338 343 352 339 329 294 311 16 346 345 347 350 352 12 345 352 336 322 322 328 324 333 334 321 305
160 178 157 155 177 141 139 87 51 59 50 55 45 32 92 75 30 322 313 296 285 286 251 45 19 25 23 353 342 350 352 356 6 338 321 334 329 325 325 322 307 323 316
302 59 154 279 200 184 162 163 148 117 75 59 59 56 50 23 315 297 285 300 287 264 257 48 43 30 25 11 341 338 349 354 327 339 335 340 334 327 324 324 321 319 313
229 359 269 210 202 201 196 213 185 177 177 134 183 179 145 266 300 309 305 286 219 195 40 41 22 21 10 7 348 350 344 340 339 341 319 317 330 334 327 330 331 334 336
205 217 252 223 191 332 182 196 203 156 167 137 142 210 185 221 258 292 310 33 37 48 35 31 22 14 11 359 356 343 341 341 334 333 333 336 344 331 321 320 319 315 314
184 21 317 220 161 217 188 207 168 162 174 165 115 56 158 183 160 86 66 41 43 40 30 23 23 13 7 358 352 345 335 338 344 341 340 335 343 344 328 322 319 318 306
193 179 251 271 229 204 221 233 181 195 175 150 93 59 343 322 74 80 64 65 44 33 33 26 18 12 2 359 349 335 341 343 343 341 333 335 327 330 329 318 309 304 302
212 183 197 227 191 186 220 224 213 210 172 162 129 129 249 267 86 81 57 51 43 35 29 20 11 7 358 353 344 341 338 338 339 340 337 336 328 321 316 313 311 307 304
205 199 194 218 191 135 193 226 201 198 176 176 173 156 188 129 127 91 54 36 14 11 12 353 351 343 352 348 338 337 327 331 338 334 325 323 321 315 313 306 301 301 300
214 215 199 202 205 196 213 206 173 17 241 179 186 180 188 172 175 131 202 95 2 347 349 348 343 332 331 323 321 330 326 343 336 317 317 311 301 295 292 291 289 290 294
212 203 212 206 193 205 211 209 187 190 198 194 192 201 180 186 176 170 148 158 267 314 307 297 292 318 321 328 310 309 339 337 313 311 297 291 281 279 278 277 278 279 279
215 244 229 222 212 194 222 198 210 193 204 198 194 200 188 198 193 204 200 225 269 291 314 314 318 302 302 298 305 335 297 289 297 285 293 285 276 278 276 277 280 278 278